• In Romania
  • List of Countries
  • For 7 days
  • Water Temperature
  • Satellite Maps
  • Weather Map
  • Weather Widgets
  • user-avatar
    Login

    Hourly Weather Szeged

    Today, 22 September, Saturday

    Time Temperature Precipitation Wind Pressure Humidity
    00:00 +20°C° 0 mm 3 mps 754 mmHg 49%
    01:00 +20°C° 0 mm 3 mps 754 mmHg 51%
    02:00 +20°C° 0 mm 3 mps 754 mmHg 52%
    03:00 +19°C° 0 mm 3 mps 754 mmHg 53%
    04:00 +19°C° 0 mm 2 mps 754 mmHg 54%
    05:00 +20°C° 0.2 mm 3 mps 754 mmHg 55%
    06:00 +20°C° 0.2 mm 3 mps 755 mmHg 56%
    07:00 +21°C° 0.2 mm 3 mps 755 mmHg 56%
    08:00 +22°C° 0 mm 4 mps 756 mmHg 51%
    09:00 +24°C° 0 mm 6 mps 756 mmHg 45%
    10:00 +27°C° 0 mm 7 mps 757 mmHg 39%
    11:00 +26°C° 0 mm 7 mps 757 mmHg 38%
    12:00 +26°C° 0 mm 8 mps 757 mmHg 36%
    13:00 +24°C° 0 mm 8 mps 757 mmHg 35%
    14:00 +22°C° 0 mm 8 mps 758 mmHg 41%
    15:00 +21°C° 0 mm 7 mps 758 mmHg 46%
    16:00 +18°C° 0 mm 7 mps 759 mmHg 52%
    17:00 +17°C° 0 mm 6 mps 759 mmHg 54%
    18:00 +16°C° 0 mm 5 mps 759 mmHg 56%
    19:00 +16°C° 0 mm 3 mps 760 mmHg 58%
    20:00 +16°C° 0 mm 3 mps 760 mmHg 58%
    21:00 +15°C° 0 mm 2 mps 760 mmHg 59%
    22:00 +15°C° 0 mm 1 mps 760 mmHg 59%
    23:00 +15°C° 0 mm 1 mps 760 mmHg 60%

    Tomorrow, 23 September, Sunday

    Time Temperature Precipitation Wind Pressure Humidity
    00:00 +15°C° 0 mm 1 mps 760 mmHg 60%
    01:00 +14°C° 0 mm 1 mps 760 mmHg 60%
    02:00 +14°C° 0 mm 1 mps 760 mmHg 60%
    03:00 +14°C° 0 mm 1 mps 760 mmHg 59%
    04:00 +14°C° 0 mm 1 mps 760 mmHg 59%
    05:00 +15°C° 0 mm 1 mps 760 mmHg 57%
    06:00 +15°C° 0 mm 1 mps 760 mmHg 55%
    07:00 +16°C° 0 mm 1 mps 760 mmHg 53%
    08:00 +18°C° 0 mm 1 mps 760 mmHg 48%
    09:00 +19°C° 0 mm 2 mps 760 mmHg 42%
    10:00 +21°C° 0 mm 2 mps 760 mmHg 36%
    11:00 +22°C° 0 mm 3 mps 759 mmHg 34%
    12:00 +25°C° 0 mm 3 mps 758 mmHg 33%
    13:00 +26°C° 0 mm 4 mps 758 mmHg 31%
    14:00 +27°C° 0 mm 3 mps 757 mmHg 32%
    15:00 +27°C° 0 mm 3 mps 756 mmHg 33%
    16:00 +28°C° 0 mm 3 mps 756 mmHg 34%
    17:00 +26°C° 0 mm 3 mps 755 mmHg 39%
    18:00 +25°C° 0 mm 3 mps 755 mmHg 43%
    19:00 +22°C° 0 mm 3 mps 755 mmHg 48%
    20:00 +22°C° 0 mm 3 mps 754 mmHg 48%
    21:00 +22°C° 0 mm 4 mps 754 mmHg 49%
    22:00 +21°C° 0 mm 5 mps 753 mmHg 50%
    23:00 +21°C° 0 mm 5 mps 752 mmHg 51%

    Day after tomorrow, 24 September, Monday

    Time Temperature Precipitation Wind Pressure Humidity
    00:00 +21°C° 0 mm 5 mps 751 mmHg 52%
    01:00 +21°C° 0 mm 5 mps 750 mmHg 52%
    02:00 +21°C° 0.1 mm 5 mps 750 mmHg 55%
    03:00 +21°C° 0.1 mm 5 mps 750 mmHg 57%
    04:00 +21°C° 0.1 mm 5 mps 750 mmHg 60%
    05:00 +20°C° 1.2 mm 6 mps 751 mmHg 60%
    06:00 +18°C° 1.2 mm 7 mps 753 mmHg 59%
    07:00 +17°C° 1.2 mm 8 mps 754 mmHg 59%
    08:00 +15°C° 0.1 mm 8 mps 756 mmHg 60%
    09:00 +13°C° 0.1 mm 8 mps 757 mmHg 61%
    10:00 +12°C° 0.1 mm 8 mps 759 mmHg 62%
    11:00 +14°C° 0.1 mm 7 mps 760 mmHg 58%
    12:00 +15°C° 0.1 mm 6 mps 760 mmHg 54%
    13:00 +15°C° 0.1 mm 5 mps 761 mmHg 50%
    14:00 +16°C° 0 mm 6 mps 761 mmHg 46%
    15:00 +16°C° 0 mm 6 mps 761 mmHg 42%
    16:00 +17°C° 0 mm 6 mps 761 mmHg 37%
    17:00 +16°C° 0 mm 6 mps 761 mmHg 38%
    18:00 +15°C° 0 mm 5 mps 762 mmHg 39%
    19:00 +14°C° 0 mm 5 mps 762 mmHg 40%
    20:00 +13°C° 0 mm 5 mps 763 mmHg 42%
    21:00 +12°C° 0 mm 5 mps 764 mmHg 44%
    22:00 +11°C° 0 mm 4 mps 764 mmHg 46%
    23:00 +11°C° 0 mm 4 mps 764 mmHg 47%

    25 September, Tuesday

    Time Temperature Precipitation Wind Pressure Humidity
    00:00 +10°C° 0 mm 4 mps 765 mmHg 49%
    01:00 +10°C° 0 mm 4 mps 765 mmHg 50%
    02:00 +8°C° 0 mm 4 mps 765 mmHg 52%
    03:00 +8°C° 0 mm 4 mps 766 mmHg 54%
    04:00 +7°C° 0 mm 4 mps 766 mmHg 56%
    05:00 +8°C° 0 mm 4 mps 766 mmHg 56%
    06:00 +8°C° 0 mm 5 mps 766 mmHg 56%
    07:00 +9°C° 0 mm 5 mps 767 mmHg 56%
    08:00 +10°C° 0 mm 5 mps 767 mmHg 48%
    09:00 +13°C° 0 mm 5 mps 767 mmHg 41%
    10:00 +15°C° 0 mm 5 mps 768 mmHg 34%
    11:00 +15°C° 0 mm 5 mps 767 mmHg 31%
    12:00 +16°C° 0 mm 5 mps 767 mmHg 28%
    13:00 +17°C° 0 mm 5 mps 767 mmHg 25%
    14:00 +16°C° 0 mm 5 mps 767 mmHg 26%
    15:00 +16°C° 0 mm 5 mps 767 mmHg 26%
    16:00 +17°C° 0 mm 4 mps 767 mmHg 26%
    17:00 +14°C° 0 mm 4 mps 767 mmHg 30%
    18:00 +13°C° 0 mm 3 mps 768 mmHg 34%
    19:00 +12°C° 0 mm 2 mps 768 mmHg 38%
    20:00 +12°C° 0 mm 2 mps 768 mmHg 40%
    21:00 +10°C° 0 mm 2 mps 769 mmHg 42%
    22:00 +9°C° 0 mm 2 mps 769 mmHg 45%
    23:00 +10°C° 0 mm 1 mps 769 mmHg 46%

    26 September, Wednesday

    Time Temperature Precipitation Wind Pressure Humidity
    00:00 +9°C° 0 mm 1 mps 769 mmHg 48%
    01:00 +9°C° 0 mm 1 mps 768 mmHg 49%
    02:00 +9°C° 0 mm 1 mps 768 mmHg 50%
    03:00 +9°C° 0 mm 1 mps 768 mmHg 51%
    04:00 +8°C° 0 mm 1 mps 768 mmHg 51%
    05:00 +9°C° 0 mm 1 mps 768 mmHg 50%
    06:00 +10°C° 0 mm 1 mps 768 mmHg 48%
    07:00 +10°C° 0 mm 1 mps 768 mmHg 47%
    08:00 +12°C° 0 mm 2 mps 768 mmHg 41%
    09:00 +14°C° 0 mm 2 mps 768 mmHg 36%
    10:00 +16°C° 0 mm 3 mps 768 mmHg 31%
    11:00 +17°C° 0 mm 3 mps 767 mmHg 28%
    12:00 +18°C° 0 mm 4 mps 767 mmHg 25%
    13:00 +19°C° 0 mm 4 mps 766 mmHg 22%
    14:00 +19°C° 0 mm 4 mps 766 mmHg 22%
    15:00 +19°C° 0 mm 4 mps 766 mmHg 23%
    16:00 +19°C° 0 mm 4 mps 765 mmHg 24%
    17:00 +17°C° 0 mm 4 mps 765 mmHg 28%
    18:00 +14°C° 0 mm 3 mps 766 mmHg 32%
    19:00 +14°C° 0 mm 2 mps 766 mmHg 36%
    20:00 +13°C° 0 mm 2 mps 766 mmHg 39%
    21:00 +13°C° 0 mm 2 mps 766 mmHg 42%
    22:00 +12°C° 0 mm 2 mps 766 mmHg 44%
    23:00 +12°C° 0 mm 2 mps 766 mmHg 47%

    27 September, Thursday

    Time Temperature Precipitation Wind Pressure Humidity
    00:00 +10°C° 0 mm 2 mps 766 mmHg 50%
    01:00 +10°C° 0 mm 2 mps 766 mmHg 53%
    02:00 +10°C° 0 mm 1 mps 766 mmHg 55%
    03:00 +10°C° 0 mm 1 mps 766 mmHg 57%
    04:00 +10°C° 0 mm 1 mps 766 mmHg 60%
    05:00 +11°C° 0 mm 1 mps 766 mmHg 58%
    06:00 +10°C° 0 mm 0 mps 766 mmHg 55%
    07:00 +11°C° 0 mm 0 mps 766 mmHg 53%
    08:00 +14°C° 0 mm 1 mps 766 mmHg 48%
    09:00 +16°C° 0 mm 1 mps 766 mmHg 43%
    10:00 +19°C° 0 mm 1 mps 766 mmHg 38%
    11:00 +20°C° 0 mm 1 mps 765 mmHg 35%
    12:00 +20°C° 0 mm 2 mps 764 mmHg 32%
    13:00 +21°C° 0 mm 2 mps 764 mmHg 29%
    14:00 +21°C° 0 mm 2 mps 763 mmHg 29%
    15:00 +21°C° 0 mm 2 mps 763 mmHg 28%
    16:00 +21°C° 0 mm 2 mps 762 mmHg 28%
    17:00 +20°C° 0 mm 2 mps 762 mmHg 31%
    18:00 +18°C° 0 mm 2 mps 762 mmHg 34%
    19:00 +16°C° 0 mm 2 mps 762 mmHg 38%
    20:00 +16°C° 0 mm 2 mps 761 mmHg 39%
    21:00 +15°C° 0 mm 2 mps 761 mmHg 41%
    22:00 +15°C° 0 mm 2 mps 761 mmHg 42%
    23:00 +14°C° 0 mm 2 mps 761 mmHg 44%
    Show more